PRIVATE WETTERSTATION BILLIGHEIM-ALLFELD                       ZURCK
Wetterdaten: Dienstag, 07.11.2017
Datum Zeit Temp. A. Temp. A. min Temp. A. max Feuchte A. Luftdruck Regen Wind Richtung Richtung Sonnenschein ET Solar Taupunkt Windchill Windben Empfang
07.11.2017 00:00 3,0 C 3,0 C 3,0 C 91 % 1023,3 hPa 0,0 l/m 0,0 km/h (0 Bft) N 360 0 min 0,000 mm 0 W/m 1,7 C 3,0 C 1,6 km/h (1 Bft) 98 %
07.11.2017 00:10 2,8 C 2,8 C 3,0 C 91 % 1023,3 hPa 0,0 l/m 0,0 km/h (0 Bft) N 0 0 min 0,000 mm 0 W/m 1,5 C 2,8 C 0,0 km/h (0 Bft) 96 %
07.11.2017 00:20 2,6 C 2,6 C 2,8 C 90 % 1023,3 hPa 0,0 l/m 0,0 km/h (0 Bft) N 0 0 min 0,000 mm 0 W/m 1,1 C 2,6 C 0,0 km/h (0 Bft) 98 %
07.11.2017 00:30 2,5 C 2,5 C 2,7 C 91 % 1023,2 hPa 0,0 l/m 0,0 km/h (0 Bft) N 360 0 min 0,000 mm 0 W/m 1,2 C 2,5 C 1,6 km/h (1 Bft) 98 %
07.11.2017 00:40 2,3 C 2,3 C 2,5 C 90 % 1023,2 hPa 0,0 l/m 0,0 km/h (0 Bft) N 0 0 min 0,000 mm 0 W/m 0,8 C 2,3 C 0,0 km/h (0 Bft) 98 %
07.11.2017 00:50 2,2 C 2,2 C 2,3 C 91 % 1023,1 hPa 0,0 l/m 0,0 km/h (0 Bft) N 0 0 min 0,000 mm 0 W/m 0,9 C 2,2 C 0,0 km/h (0 Bft) 99 %
07.11.2017 01:00 2,1 C 2,1 C 2,2 C 91 % 1023,1 hPa 0,0 l/m 0,0 km/h (0 Bft) N 0 0 min 0,000 mm 0 W/m 0,8 C 2,1 C 0,0 km/h (0 Bft) 99 %
07.11.2017 01:10 2,0 C 2,0 C 2,1 C 91 % 1023,1 hPa 0,0 l/m 0,0 km/h (0 Bft) N 0 0 min 0,000 mm 0 W/m 0,7 C 2,0 C 0,0 km/h (0 Bft) 95 %
07.11.2017 01:20 1,9 C 1,9 C 2,0 C 91 % 1023,0 hPa 0,0 l/m 0,0 km/h (0 Bft) N 0 0 min 0,000 mm 0 W/m 0,6 C 1,9 C 0,0 km/h (0 Bft) 93 %
07.11.2017 01:30 1,8 C 1,8 C 1,9 C 91 % 1022,9 hPa 0,0 l/m 0,0 km/h (0 Bft) N 0 0 min 0,000 mm 0 W/m 0,5 C 1,8 C 0,0 km/h (0 Bft) 99 %
07.11.2017 01:40 1,7 C 1,7 C 1,8 C 91 % 1022,9 hPa 0,0 l/m 0,0 km/h (0 Bft) N 0 0 min 0,000 mm 0 W/m 0,4 C 1,7 C 0,0 km/h (0 Bft) 100 %
07.11.2017 01:50 1,7 C 1,7 C 1,7 C 90 % 1022,9 hPa 0,0 l/m 0,0 km/h (0 Bft) N 0 0 min 0,000 mm 0 W/m 0,2 C 1,7 C 0,0 km/h (0 Bft) 100 %
07.11.2017 02:00 1,8 C 1,7 C 1,8 C 90 % 1022,8 hPa 0,0 l/m 0,0 km/h (0 Bft) N 0 0 min 0,000 mm 0 W/m 0,3 C 1,8 C 0,0 km/h (0 Bft) 100 %
07.11.2017 02:10 2,1 C 1,8 C 2,1 C 90 % 1022,7 hPa 0,0 l/m 0,0 km/h (0 Bft) N 360 0 min 0,000 mm 0 W/m 0,6 C 2,1 C 3,2 km/h (1 Bft) 100 %
07.11.2017 02:20 2,4 C 2,1 C 2,4 C 90 % 1022,5 hPa 0,0 l/m 0,0 km/h (0 Bft) N 360 0 min 0,000 mm 0 W/m 0,9 C 2,4 C 1,6 km/h (1 Bft) 100 %
07.11.2017 02:30 2,8 C 2,4 C 2,8 C 90 % 1022,5 hPa 0,0 l/m 0,0 km/h (0 Bft) N 360 0 min 0,000 mm 0 W/m 1,3 C 2,8 C 4,8 km/h (1 Bft) 100 %
07.11.2017 02:40 3,0 C 2,8 C 3,0 C 90 % 1022,5 hPa 0,0 l/m 0,0 km/h (0 Bft) N 360 0 min 0,000 mm 0 W/m 1,5 C 3,0 C 3,2 km/h (1 Bft) 99 %
07.11.2017 02:50 3,2 C 3,0 C 3,2 C 90 % 1022,2 hPa 0,0 l/m 0,0 km/h (0 Bft) N 360 0 min 0,000 mm 0 W/m 1,7 C 3,2 C 3,2 km/h (1 Bft) 98 %
07.11.2017 03:00 3,3 C 3,2 C 3,3 C 91 % 1022,2 hPa 0,0 l/m 0,0 km/h (0 Bft) N 360 0 min 0,000 mm 0 W/m 2,0 C 3,3 C 3,2 km/h (1 Bft) 98 %
07.11.2017 03:10 3,4 C 3,3 C 3,4 C 91 % 1022,2 hPa 0,0 l/m 0,0 km/h (0 Bft) N 360 0 min 0,000 mm 0 W/m 2,1 C 3,4 C 6,4 km/h (2 Bft) 97 %
07.11.2017 03:20 3,6 C 3,4 C 3,6 C 91 % 1022,1 hPa 0,0 l/m 0,0 km/h (0 Bft) N-NO 22 0 min 0,000 mm 0 W/m 2,3 C 3,6 C 4,8 km/h (1 Bft) 97 %
07.11.2017 03:30 3,7 C 3,6 C 3,7 C 91 % 1021,9 hPa 0,0 l/m 1,6 km/h (1 Bft) N-NW 337 0 min 0,000 mm 0 W/m 2,4 C 3,7 C 16,1 km/h (3 Bft) 97 %
07.11.2017 03:40 3,8 C 3,7 C 3,8 C 90 % 1021,8 hPa 0,0 l/m 0,0 km/h (0 Bft) N 360 0 min 0,000 mm 0 W/m 2,3 C 3,8 C 6,4 km/h (2 Bft) 98 %
07.11.2017 03:50 3,8 C 3,8 C 3,8 C 90 % 1021,8 hPa 0,0 l/m 0,0 km/h (0 Bft) N 360 0 min 0,000 mm 0 W/m 2,3 C 3,8 C 4,8 km/h (1 Bft) 98 %
07.11.2017 04:00 3,9 C 3,8 C 3,9 C 90 % 1021,7 hPa 0,0 l/m 0,0 km/h (0 Bft) N-NO 22 0 min 0,000 mm 0 W/m 2,4 C 3,9 C 6,4 km/h (2 Bft) 97 %
07.11.2017 04:10 3,9 C 3,9 C 3,9 C 90 % 1021,6 hPa 0,0 l/m 0,0 km/h (0 Bft) N-NO 22 0 min 0,000 mm 0 W/m 2,4 C 3,9 C 3,2 km/h (1 Bft) 97 %
07.11.2017 04:20 3,9 C 3,9 C 3,9 C 90 % 1021,5 hPa 0,0 l/m 0,0 km/h (0 Bft) N-NO 22 0 min 0,000 mm 0 W/m 2,4 C 3,9 C 3,2 km/h (1 Bft) 98 %
07.11.2017 04:30 3,9 C 3,9 C 4,0 C 90 % 1021,4 hPa 0,0 l/m 0,0 km/h (0 Bft) N-NO 22 0 min 0,000 mm 0 W/m 2,4 C 3,9 C 9,7 km/h (2 Bft) 98 %
07.11.2017 04:40 4,0 C 4,0 C 4,0 C 90 % 1021,4 hPa 0,0 l/m 0,0 km/h (0 Bft) N-NO 22 0 min 0,000 mm 0 W/m 2,5 C 4,0 C 1,6 km/h (1 Bft) 85 %
07.11.2017 04:50 4,0 C 4,0 C 4,0 C 90 % 1021,1 hPa 0,0 l/m 0,0 km/h (0 Bft) N-NO 22 0 min 0,000 mm 0 W/m 2,5 C 4,0 C 3,2 km/h (1 Bft) 98 %
07.11.2017 05:00 4,1 C 4,0 C 4,1 C 90 % 1021,1 hPa 0,0 l/m 0,0 km/h (0 Bft) N-NO 22 0 min 0,000 mm 0 W/m 2,6 C 4,1 C 4,8 km/h (1 Bft) 97 %
07.11.2017 05:10 4,1 C 4,1 C 4,1 C 90 % 1021,1 hPa 0,0 l/m 0,0 km/h (0 Bft) N 0 0 min 0,000 mm 0 W/m 2,6 C 4,1 C 0,0 km/h (0 Bft) 98 %
07.11.2017 05:20 4,1 C 4,1 C 4,1 C 90 % 1021,1 hPa 0,0 l/m 0,0 km/h (0 Bft) N-NO 22 0 min 0,000 mm 0 W/m 2,6 C 4,1 C 3,2 km/h (1 Bft) 98 %
07.11.2017 05:30 4,1 C 4,1 C 4,1 C 90 % 1021,1 hPa 0,0 l/m 0,0 km/h (0 Bft) N-NO 22 0 min 0,000 mm 0 W/m 2,6 C 4,1 C 4,8 km/h (1 Bft) 97 %
07.11.2017 05:40 4,2 C 4,1 C 4,2 C 90 % 1020,8 hPa 0,0 l/m 0,0 km/h (0 Bft) N 0 0 min 0,000 mm 0 W/m 2,7 C 4,2 C 0,0 km/h (0 Bft) 97 %
07.11.2017 05:50 4,2 C 4,2 C 4,2 C 90 % 1020,7 hPa 0,0 l/m 0,0 km/h (0 Bft) N 0 0 min 0,000 mm 0 W/m 2,7 C 4,2 C 0,0 km/h (0 Bft) 97 %
07.11.2017 06:00 4,2 C 4,2 C 4,2 C 90 % 1020,8 hPa 0,0 l/m 0,0 km/h (0 Bft) N 0 0 min 0,000 mm 0 W/m 2,7 C 4,2 C 0,0 km/h (0 Bft) 98 %
07.11.2017 06:10 4,2 C 4,2 C 4,2 C 90 % 1020,7 hPa 0,0 l/m 0,0 km/h (0 Bft) N 0 0 min 0,000 mm 0 W/m 2,7 C 4,2 C 0,0 km/h (0 Bft) 98 %
07.11.2017 06:20 4,2 C 4,2 C 4,2 C 90 % 1020,7 hPa 0,0 l/m 0,0 km/h (0 Bft) N-NO 22 0 min 0,000 mm 0 W/m 2,7 C 4,2 C 1,6 km/h (1 Bft) 98 %
07.11.2017 06:30 4,3 C 4,2 C 4,3 C 91 % 1020,6 hPa 0,0 l/m 0,0 km/h (0 Bft) N-NO 22 0 min 0,000 mm 0 W/m 3,0 C 4,3 C 1,6 km/h (1 Bft) 97 %
07.11.2017 06:40 4,3 C 4,3 C 4,3 C 91 % 1020,6 hPa 0,0 l/m 0,0 km/h (0 Bft) N-NO 22 0 min 0,000 mm 0 W/m 3,0 C 4,3 C 4,8 km/h (1 Bft) 98 %
07.11.2017 06:50 4,4 C 4,3 C 4,4 C 91 % 1020,6 hPa 0,0 l/m 0,0 km/h (0 Bft) N 0 0 min 0,000 mm 0 W/m 3,1 C 4,4 C 0,0 km/h (0 Bft) 98 %
07.11.2017 07:00 4,4 C 4,4 C 4,4 C 91 % 1020,4 hPa 0,0 l/m 0,0 km/h (0 Bft) N-NO 22 0 min 0,000 mm 0 W/m 3,1 C 4,4 C 1,6 km/h (1 Bft) 97 %
07.11.2017 07:10 4,5 C 4,4 C 4,5 C 90 % 1020,4 hPa 0,0 l/m 0,0 km/h (0 Bft) N-NO 22 0 min 0,000 mm 0 W/m 3,0 C 4,5 C 3,2 km/h (1 Bft) 97 %
07.11.2017 07:20 4,6 C 4,5 C 4,6 C 90 % 1020,5 hPa 0,0 l/m 0,0 km/h (0 Bft) N 0 0 min 0,000 mm 0 W/m 3,1 C 4,6 C 0,0 km/h (0 Bft) 97 %
07.11.2017 07:30 4,6 C 4,5 C 4,6 C 90 % 1020,6 hPa 0,0 l/m 0,0 km/h (0 Bft) N-NO 22 0 min 0,000 mm 0 W/m 3,1 C 4,6 C 1,6 km/h (1 Bft) 98 %
07.11.2017 07:40 4,6 C 4,6 C 4,6 C 90 % 1020,6 hPa 0,0 l/m 0,0 km/h (0 Bft) N 0 0 min 0,000 mm 5 W/m 3,1 C 4,6 C 0,0 km/h (0 Bft) 97 %
07.11.2017 07:50 4,7 C 4,6 C 4,7 C 90 % 1020,6 hPa 0,0 l/m 0,0 km/h (0 Bft) N 0 0 min 0,000 mm 14 W/m 3,2 C 4,7 C 0,0 km/h (0 Bft) 97 %
07.11.2017 08:00 4,7 C 4,6 C 4,7 C 91 % 1020,6 hPa 0,0 l/m 0,0 km/h (0 Bft) N 0 0 min 0,000 mm 25 W/m 3,4 C 4,7 C 0,0 km/h (0 Bft) 97 %
07.11.2017 08:10 4,8 C 4,7 C 4,8 C 91 % 1020,5 hPa 0,0 l/m 0,0 km/h (0 Bft) N-NO 22 0 min 0,000 mm 47 W/m 3,5 C 4,8 C 3,2 km/h (1 Bft) 97 %
07.11.2017 08:20 5,0 C 4,8 C 5,0 C 90 % 1020,6 hPa 0,0 l/m 0,0 km/h (0 Bft) N 360 0 min 0,000 mm 84 W/m 3,5 C 5,0 C 1,6 km/h (1 Bft) 97 %
07.11.2017 08:30 5,2 C 5,0 C 5,2 C 90 % 1020,5 hPa 0,0 l/m 0,0 km/h (0 Bft) N 360 0 min 0,000 mm 74 W/m 3,7 C 5,2 C 3,2 km/h (1 Bft) 97 %
07.11.2017 08:40 5,3 C 5,2 C 5,3 C 90 % 1020,5 hPa 0,0 l/m 0,0 km/h (0 Bft) N 0 0 min 0,000 mm 67 W/m 3,8 C 5,3 C 0,0 km/h (0 Bft) 97 %
07.11.2017 08:50 5,4 C 5,3 C 5,4 C 90 % 1020,4 hPa 0,0 l/m 0,0 km/h (0 Bft) N 0 0 min 0,000 mm 65 W/m 3,9 C 5,4 C 0,0 km/h (0 Bft) 98 %
07.11.2017 09:00 5,5 C 5,4 C 5,5 C 90 % 1020,3 hPa 0,0 l/m 0,0 km/h (0 Bft) N-NO 22 0 min 0,025 mm 67 W/m 4,0 C 5,5 C 3,2 km/h (1 Bft) 97 %
07.11.2017 09:10 5,6 C 5,5 C 5,6 C 90 % 1020,3 hPa 0,0 l/m 0,0 km/h (0 Bft) N 0 0 min 0,000 mm 72 W/m 4,1 C 5,6 C 0,0 km/h (0 Bft) 98 %
07.11.2017 09:20 5,7 C 5,6 C 5,7 C 90 % 1020,1 hPa 0,0 l/m 0,0 km/h (0 Bft) N 360 0 min 0,000 mm 81 W/m 4,2 C 5,7 C 3,2 km/h (1 Bft) 97 %
07.11.2017 09:40 5,9 C 5,6 C 5,9 C 90 % 1019,9 hPa 0,0 l/m 0,9 km/h (0 Bft) N 9 0 min 0,000 mm 63 W/m 4,4 C 5,9 C 3,2 km/h (1 Bft) 100 %
07.11.2017 09:50 6,1 C 5,9 C 6,1 C 89 % 1019,9 hPa 0,0 l/m 0,0 km/h (0 Bft) N 9 0 min 0,000 mm 63 W/m 4,4 C 6,1 C 1,6 km/h (1 Bft) 100 %
07.11.2017 10:00 6,2 C 6,1 C 6,2 C 89 % 1019,8 hPa 0,0 l/m 0,3 km/h (0 Bft) N-NW 332 0 min 0,026 mm 51 W/m 4,5 C 6,2 C 4,8 km/h (1 Bft) 91 %
07.11.2017 10:10 6,2 C 6,2 C 6,2 C 89 % 1019,7 hPa 0,0 l/m 0,8 km/h (0 Bft) NW 325 0 min 0,000 mm 62 W/m 4,5 C 6,2 C 4,8 km/h (1 Bft) 99 %
07.11.2017 10:20 6,3 C 6,2 C 6,3 C 89 % 1019,6 hPa 0,0 l/m 0,3 km/h (0 Bft) N-NW 337 0 min 0,000 mm 62 W/m 4,6 C 6,3 C 4,8 km/h (1 Bft) 99 %
07.11.2017 10:30 6,4 C 6,3 C 6,4 C 89 % 1019,5 hPa 0,0 l/m 0,2 km/h (0 Bft) N-NW 336 0 min 0,000 mm 69 W/m 4,7 C 6,4 C 1,6 km/h (1 Bft) 100 %
07.11.2017 10:40 6,5 C 6,4 C 6,5 C 89 % 1019,5 hPa 0,0 l/m 1,6 km/h (1 Bft) NO 35 0 min 0,000 mm 49 W/m 4,8 C 6,5 C 4,8 km/h (1 Bft) 100 %
07.11.2017 10:50 6,5 C 6,5 C 6,5 C 89 % 1019,4 hPa 0,0 l/m 1,3 km/h (1 Bft) N 360 0 min 0,000 mm 90 W/m 4,8 C 6,5 C 9,7 km/h (2 Bft) 100 %
07.11.2017 11:00 6,6 C 6,5 C 6,6 C 89 % 1019,3 hPa 0,0 l/m 0,1 km/h (0 Bft) N 360 0 min 0,025 mm 114 W/m 4,9 C 6,6 C 1,6 km/h (1 Bft) 100 %
07.11.2017 11:10 6,8 C 6,6 C 6,8 C 89 % 1019,2 hPa 0,0 l/m 0,9 km/h (0 Bft) N 360 0 min 0,000 mm 144 W/m 5,1 C 6,8 C 3,2 km/h (1 Bft) 100 %
07.11.2017 11:20 7,1 C 6,8 C 7,1 C 88 % 1019,0 hPa 0,0 l/m 0,9 km/h (0 Bft) NW 321 10 min 0,000 mm 165 W/m 5,2 C 7,1 C 8,0 km/h (2 Bft) 100 %
07.11.2017 11:30 7,2 C 7,1 C 7,2 C 88 % 1018,9 hPa 0,0 l/m 0,5 km/h (0 Bft) O-SO 106 0 min 0,000 mm 111 W/m 5,3 C 7,2 C 4,8 km/h (1 Bft) 100 %
07.11.2017 11:40 7,3 C 7,2 C 7,3 C 88 % 1018,8 hPa 0,0 l/m 1,5 km/h (1 Bft) N-NO 30 0 min 0,000 mm 86 W/m 5,4 C 7,3 C 11,3 km/h (2 Bft) 100 %
07.11.2017 11:50 7,2 C 7,2 C 7,3 C 88 % 1018,8 hPa 0,0 l/m 0,5 km/h (0 Bft) N-NO 28 0 min 0,000 mm 77 W/m 5,3 C 7,2 C 3,2 km/h (1 Bft) 100 %
07.11.2017 12:00 7,2 C 7,2 C 7,2 C 88 % 1018,6 hPa 0,0 l/m 0,3 km/h (0 Bft) N-NW 344 0 min 0,051 mm 72 W/m 5,3 C 7,2 C 6,4 km/h (2 Bft) 100 %
07.11.2017 12:10 7,2 C 7,2 C 7,3 C 88 % 1018,4 hPa 0,0 l/m 0,5 km/h (0 Bft) N-NW 347 0 min 0,000 mm 134 W/m 5,3 C 7,2 C 3,2 km/h (1 Bft) 100 %
07.11.2017 12:20 7,4 C 7,2 C 7,4 C 88 % 1018,3 hPa 0,0 l/m 0,0 km/h (0 Bft) N-NW 347 10 min 0,000 mm 178 W/m 5,5 C 7,4 C 0,0 km/h (0 Bft) 100 %
07.11.2017 12:30 7,6 C 7,4 C 7,6 C 88 % 1018,0 hPa 0,0 l/m 0,6 km/h (0 Bft) N-NW 340 10 min 0,000 mm 160 W/m 5,7 C 7,6 C 4,8 km/h (1 Bft) 100 %
07.11.2017 12:40 7,9 C 7,6 C 7,9 C 87 % 1017,9 hPa 0,0 l/m 1,0 km/h (0 Bft) SO 126 10 min 0,000 mm 162 W/m 5,9 C 7,9 C 6,4 km/h (2 Bft) 100 %
07.11.2017 12:50 7,9 C 7,9 C 7,9 C 87 % 1017,8 hPa 0,0 l/m 0,5 km/h (0 Bft) O-SO 123 0 min 0,000 mm 128 W/m 5,9 C 7,9 C 3,2 km/h (1 Bft) 100 %
07.11.2017 13:00 8,0 C 7,9 C 8,0 C 86 % 1017,7 hPa 0,0 l/m 0,6 km/h (0 Bft) O-SO 123 0 min 0,051 mm 69 W/m 5,8 C 8,0 C 3,2 km/h (1 Bft) 99 %
07.11.2017 13:10 7,9 C 7,9 C 8,0 C 87 % 1017,6 hPa 0,0 l/m 0,0 km/h (0 Bft) O-SO 123 0 min 0,000 mm 81 W/m 5,9 C 7,9 C 1,6 km/h (1 Bft) 100 %
07.11.2017 13:20 7,9 C 7,9 C 7,9 C 87 % 1017,5 hPa 0,0 l/m 0,6 km/h (0 Bft) S-SO 152 0 min 0,000 mm 79 W/m 5,9 C 7,9 C 4,8 km/h (1 Bft) 100 %
07.11.2017 13:30 7,9 C 7,9 C 7,9 C 87 % 1017,3 hPa 0,0 l/m 0,0 km/h (0 Bft) S-SO 155 0 min 0,000 mm 88 W/m 5,9 C 7,9 C 0,0 km/h (0 Bft) 100 %
07.11.2017 13:40 8,0 C 7,9 C 8,0 C 87 % 1017,2 hPa 0,0 l/m 0,0 km/h (0 Bft) S 169 0 min 0,000 mm 105 W/m 6,0 C 8,0 C 1,6 km/h (1 Bft) 100 %
07.11.2017 13:50 8,1 C 8,0 C 8,1 C 86 % 1017,1 hPa 0,0 l/m 0,9 km/h (0 Bft) O 86 0 min 0,000 mm 97 W/m 5,9 C 8,1 C 8,0 km/h (2 Bft) 99 %
07.11.2017 14:00 8,0 C 8,0 C 8,1 C 86 % 1017,0 hPa 0,0 l/m 0,8 km/h (0 Bft) O 82 0 min 0,051 mm 70 W/m 5,8 C 8,0 C 4,8 km/h (1 Bft) 99 %
07.11.2017 14:10 8,0 C 8,0 C 8,0 C 86 % 1016,9 hPa 0,0 l/m 1,6 km/h (1 Bft) N-NW 329 0 min 0,000 mm 56 W/m 5,8 C 8,0 C 6,4 km/h (2 Bft) 100 %
07.11.2017 14:20 7,9 C 7,9 C 8,0 C 86 % 1016,9 hPa 0,0 l/m 1,1 km/h (1 Bft) N-NW 328 0 min 0,000 mm 42 W/m 5,7 C 7,9 C 4,8 km/h (1 Bft) 100 %
07.11.2017 14:30 7,9 C 7,9 C 7,9 C 87 % 1016,7 hPa 0,0 l/m 0,6 km/h (0 Bft) N 355 0 min 0,000 mm 37 W/m 5,9 C 7,9 C 4,8 km/h (1 Bft) 99 %
07.11.2017 14:40 7,8 C 7,8 C 7,9 C 87 % 1016,8 hPa 0,0 l/m 0,3 km/h (0 Bft) N 355 0 min 0,000 mm 32 W/m 5,8 C 7,8 C 3,2 km/h (1 Bft) 99 %
07.11.2017 14:50 7,7 C 7,7 C 7,8 C 87 % 1016,7 hPa 0,0 l/m 0,5 km/h (0 Bft) N-NW 340 0 min 0,000 mm 26 W/m 5,7 C 7,7 C 6,4 km/h (2 Bft) 97 %
07.11.2017 15:00 7,7 C 7,7 C 7,7 C 87 % 1016,7 hPa 0,0 l/m 0,0 km/h (0 Bft) N-NW 340 0 min 0,025 mm 25 W/m 5,7 C 7,7 C 0,0 km/h (0 Bft) 98 %
07.11.2017 15:10 7,6 C 7,6 C 7,7 C 87 % 1016,8 hPa 0,0 l/m 0,5 km/h (0 Bft) O 84 0 min 0,000 mm 19 W/m 5,6 C 7,6 C 8,0 km/h (2 Bft) 97 %
07.11.2017 15:20 7,6 C 7,6 C 7,6 C 87 % 1016,7 hPa 0,0 l/m 0,8 km/h (0 Bft) O 82 0 min 0,000 mm 14 W/m 5,6 C 7,6 C 4,8 km/h (1 Bft) 97 %
07.11.2017 15:30 7,5 C 7,5 C 7,6 C 88 % 1016,7 hPa 0,0 l/m 0,4 km/h (0 Bft) O 82 0 min 0,000 mm 9 W/m 5,6 C 7,5 C 4,8 km/h (1 Bft) 97 %
07.11.2017 15:40 7,5 C 7,5 C 7,5 C 88 % 1016,5 hPa 0,0 l/m 0,7 km/h (0 Bft) N 351 0 min 0,000 mm 11 W/m 5,6 C 7,5 C 6,4 km/h (2 Bft) 97 %
07.11.2017 15:50 7,4 C 7,4 C 7,5 C 88 % 1016,3 hPa 0,0 l/m 2,0 km/h (1 Bft) N 360 0 min 0,000 mm 11 W/m 5,5 C 7,4 C 8,0 km/h (2 Bft) 97 %
07.11.2017 16:00 7,3 C 7,3 C 7,4 C 88 % 1016,2 hPa 0,0 l/m 1,5 km/h (1 Bft) N-NO 26 0 min 0,000 mm 9 W/m 5,4 C 7,3 C 8,0 km/h (2 Bft) 97 %
07.11.2017 16:10 7,3 C 7,3 C 7,3 C 88 % 1016,1 hPa 0,0 l/m 0,2 km/h (0 Bft) N-NO 27 0 min 0,000 mm 9 W/m 5,4 C 7,3 C 4,8 km/h (1 Bft) 98 %
07.11.2017 16:20 7,3 C 7,3 C 7,3 C 88 % 1016,1 hPa 0,0 l/m 0,6 km/h (0 Bft) N-NO 26 0 min 0,000 mm 0 W/m 5,4 C 7,3 C 3,2 km/h (1 Bft) 97 %
07.11.2017 16:30 7,3 C 7,3 C 7,3 C 88 % 1016,1 hPa 0,0 l/m 0,0 km/h (0 Bft) N-NO 26 0 min 0,000 mm 0 W/m 5,4 C 7,3 C 0,0 km/h (0 Bft) 98 %
07.11.2017 16:40 7,3 C 7,3 C 7,3 C 89 % 1016,1 hPa 0,0 l/m 0,0 km/h (0 Bft) N-NO 25 0 min 0,000 mm 0 W/m 5,6 C 7,3 C 1,6 km/h (1 Bft) 97 %
07.11.2017 16:50 7,2 C 7,2 C 7,3 C 89 % 1016,1 hPa 0,0 l/m 0,1 km/h (0 Bft) N-NO 24 0 min 0,000 mm 0 W/m 5,5 C 7,2 C 3,2 km/h (1 Bft) 97 %
07.11.2017 17:00 7,2 C 7,2 C 7,2 C 89 % 1016,1 hPa 0,0 l/m 0,0 km/h (0 Bft) N-NO 24 0 min 0,000 mm 0 W/m 5,5 C 7,2 C 0,0 km/h (0 Bft) 98 %
07.11.2017 17:10 7,2 C 7,2 C 7,2 C 89 % 1016,1 hPa 0,0 l/m 0,4 km/h (0 Bft) N-NO 24 0 min 0,000 mm 0 W/m 5,5 C 7,2 C 3,2 km/h (1 Bft) 97 %
07.11.2017 17:20 7,2 C 7,2 C 7,2 C 89 % 1016,1 hPa 0,0 l/m 0,9 km/h (0 Bft) N-NO 24 0 min 0,000 mm 0 W/m 5,5 C 7,2 C 4,8 km/h (1 Bft) 97 %
07.11.2017 17:30 7,2 C 7,2 C 7,2 C 89 % 1016,1 hPa 0,0 l/m 0,9 km/h (0 Bft) N-NO 27 0 min 0,000 mm 0 W/m 5,5 C 7,2 C 4,8 km/h (1 Bft) 97 %
07.11.2017 17:40 7,2 C 7,2 C 7,2 C 89 % 1016,1 hPa 0,0 l/m 0,9 km/h (0 Bft) N-NO 26 0 min 0,000 mm 0 W/m 5,5 C 7,2 C 4,8 km/h (1 Bft) 98 %
07.11.2017 17:50 7,2 C 7,2 C 7,2 C 89 % 1016,0 hPa 0,0 l/m 0,5 km/h (0 Bft) N-NO 26 0 min 0,000 mm 0 W/m 5,5 C 7,2 C 3,2 km/h (1 Bft) 97 %
07.11.2017 18:00 7,2 C 7,2 C 7,2 C 89 % 1015,9 hPa 0,0 l/m 0,0 km/h (0 Bft) N-NO 26 0 min 0,000 mm 0 W/m 5,5 C 7,2 C 0,0 km/h (0 Bft) 97 %
07.11.2017 18:10 7,2 C 7,2 C 7,2 C 89 % 1016,0 hPa 0,0 l/m 0,2 km/h (0 Bft) N-NO 27 0 min 0,000 mm 0 W/m 5,5 C 7,2 C 3,2 km/h (1 Bft) 98 %
07.11.2017 18:20 7,2 C 7,1 C 7,2 C 89 % 1016,0 hPa 0,0 l/m 0,0 km/h (0 Bft) N-NO 27 0 min 0,000 mm 0 W/m 5,5 C 7,2 C 0,0 km/h (0 Bft) 97 %
07.11.2017 18:30 7,1 C 7,1 C 7,2 C 89 % 1016,0 hPa 0,0 l/m 0,0 km/h (0 Bft) N-NO 27 0 min 0,000 mm 0 W/m 5,4 C 7,1 C 0,0 km/h (0 Bft) 98 %
07.11.2017 18:40 7,1 C 7,1 C 7,2 C 89 % 1016,0 hPa 0,0 l/m 0,0 km/h (0 Bft) N-NO 27 0 min 0,000 mm 0 W/m 5,4 C 7,1 C 0,0 km/h (0 Bft) 97 %
07.11.2017 18:50 7,1 C 7,1 C 7,1 C 89 % 1016,0 hPa 0,0 l/m 0,2 km/h (0 Bft) N-NO 28 0 min 0,000 mm 0 W/m 5,4 C 7,1 C 3,2 km/h (1 Bft) 97 %
07.11.2017 19:00 7,1 C 7,1 C 7,1 C 89 % 1016,0 hPa 0,0 l/m 0,0 km/h (0 Bft) N-NO 26 0 min 0,000 mm 0 W/m 5,4 C 7,1 C 0,0 km/h (0 Bft) 98 %
07.11.2017 19:10 7,1 C 7,1 C 7,1 C 89 % 1016,0 hPa 0,0 l/m 0,0 km/h (0 Bft) N-NO 26 0 min 0,000 mm 0 W/m 5,4 C 7,1 C 0,0 km/h (0 Bft) 98 %
07.11.2017 19:20 7,1 C 7,1 C 7,1 C 90 % 1016,0 hPa 0,0 l/m 0,0 km/h (0 Bft) N-NO 26 0 min 0,000 mm 0 W/m 5,6 C 7,1 C 0,0 km/h (0 Bft) 97 %
07.11.2017 19:30 7,0 C 7,0 C 7,1 C 90 % 1016,0 hPa 0,0 l/m 0,0 km/h (0 Bft) N-NO 27 0 min 0,000 mm 0 W/m 5,5 C 7,0 C 0,0 km/h (0 Bft) 97 %
07.11.2017 19:40 7,0 C 7,0 C 7,0 C 90 % 1016,0 hPa 0,0 l/m 0,0 km/h (0 Bft) N-NO 27 0 min 0,000 mm 0 W/m 5,5 C 7,0 C 0,0 km/h (0 Bft) 98 %
07.11.2017 19:50 6,9 C 6,9 C 7,0 C 90 % 1015,9 hPa 0,0 l/m 0,0 km/h (0 Bft) N-NO 27 0 min 0,000 mm 0 W/m 5,4 C 6,9 C 0,0 km/h (0 Bft) 97 %
07.11.2017 20:00 6,9 C 6,8 C 6,9 C 90 % 1015,9 hPa 0,0 l/m 0,0 km/h (0 Bft) N-NO 27 0 min 0,000 mm 0 W/m 5,4 C 6,9 C 0,0 km/h (0 Bft) 97 %
07.11.2017 20:10 6,8 C 6,8 C 6,9 C 90 % 1015,7 hPa 0,0 l/m 0,0 km/h (0 Bft) N-NO 27 0 min 0,000 mm 0 W/m 5,3 C 6,8 C 0,0 km/h (0 Bft) 97 %
07.11.2017 20:20 6,8 C 6,8 C 6,8 C 90 % 1015,7 hPa 0,0 l/m 0,0 km/h (0 Bft) N-NO 27 0 min 0,000 mm 0 W/m 5,3 C 6,8 C 0,0 km/h (0 Bft) 97 %
07.11.2017 20:30 6,8 C 6,8 C 6,8 C 90 % 1015,6 hPa 0,0 l/m 0,0 km/h (0 Bft) N-NO 27 0 min 0,000 mm 0 W/m 5,3 C 6,8 C 0,0 km/h (0 Bft) 98 %
07.11.2017 20:40 6,7 C 6,7 C 6,8 C 90 % 1015,6 hPa 0,0 l/m 0,0 km/h (0 Bft) N-NO 27 0 min 0,000 mm 0 W/m 5,2 C 6,7 C 0,0 km/h (0 Bft) 97 %
07.11.2017 20:50 6,8 C 6,7 C 6,8 C 90 % 1015,7 hPa 0,0 l/m 0,0 km/h (0 Bft) N-NO 27 0 min 0,000 mm 0 W/m 5,3 C 6,8 C 0,0 km/h (0 Bft) 98 %
07.11.2017 21:00 6,7 C 6,7 C 6,8 C 90 % 1015,6 hPa 0,0 l/m 0,0 km/h (0 Bft) N-NO 27 0 min 0,000 mm 0 W/m 5,2 C 6,7 C 0,0 km/h (0 Bft) 96 %
07.11.2017 21:10 6,7 C 6,7 C 6,7 C 90 % 1015,5 hPa 0,0 l/m 0,0 km/h (0 Bft) N 0 0 min 0,000 mm 0 W/m 5,2 C 6,7 C 0,0 km/h (0 Bft) 100 %
07.11.2017 21:20 6,7 C 6,7 C 6,7 C 90 % 1015,3 hPa 0,0 l/m 0,0 km/h (0 Bft) N 0 0 min 0,000 mm 0 W/m 5,2 C 6,7 C 0,0 km/h (0 Bft) 100 %
07.11.2017 21:30 6,7 C 6,7 C 6,7 C 90 % 1015,2 hPa 0,0 l/m 0,0 km/h (0 Bft) N 0 0 min 0,000 mm 0 W/m 5,2 C 6,7 C 0,0 km/h (0 Bft) 100 %
07.11.2017 21:40 6,7 C 6,7 C 6,7 C 90 % 1015,4 hPa 0,0 l/m 0,0 km/h (0 Bft) N-NO 22 0 min 0,000 mm 0 W/m 5,2 C 6,7 C 3,2 km/h (1 Bft) 100 %
07.11.2017 21:50 6,6 C 6,6 C 6,7 C 90 % 1015,4 hPa 0,0 l/m 0,0 km/h (0 Bft) N 0 0 min 0,000 mm 0 W/m 5,1 C 6,6 C 0,0 km/h (0 Bft) 100 %
07.11.2017 22:00 6,6 C 6,6 C 6,7 C 90 % 1015,4 hPa 0,0 l/m 0,0 km/h (0 Bft) N 0 0 min 0,000 mm 0 W/m 5,1 C 6,6 C 0,0 km/h (0 Bft) 100 %
07.11.2017 22:10 6,6 C 6,6 C 6,6 C 90 % 1015,2 hPa 0,0 l/m 0,0 km/h (0 Bft) N 0 0 min 0,000 mm 0 W/m 5,1 C 6,6 C 0,0 km/h (0 Bft) 99 %
07.11.2017 22:20 6,6 C 6,6 C 6,6 C 90 % 1015,2 hPa 0,0 l/m 0,0 km/h (0 Bft) N 0 0 min 0,000 mm 0 W/m 5,1 C 6,6 C 0,0 km/h (0 Bft) 100 %
07.11.2017 22:30 6,6 C 6,6 C 6,6 C 90 % 1015,1 hPa 0,0 l/m 0,0 km/h (0 Bft) N-NO 22 0 min 0,000 mm 0 W/m 5,1 C 6,6 C 3,2 km/h (1 Bft) 100 %
07.11.2017 22:40 6,6 C 6,6 C 6,6 C 90 % 1014,8 hPa 0,0 l/m 0,0 km/h (0 Bft) N-NO 22 0 min 0,000 mm 0 W/m 5,1 C 6,6 C 3,2 km/h (1 Bft) 99 %
07.11.2017 22:50 6,6 C 6,6 C 6,6 C 90 % 1014,8 hPa 0,0 l/m 0,0 km/h (0 Bft) N 0 0 min 0,000 mm 0 W/m 5,1 C 6,6 C 0,0 km/h (0 Bft) 100 %
07.11.2017 23:00 6,6 C 6,6 C 6,6 C 90 % 1014,8 hPa 0,0 l/m 0,0 km/h (0 Bft) N-NO 22 0 min 0,000 mm 0 W/m 5,1 C 6,6 C 3,2 km/h (1 Bft) 100 %
07.11.2017 23:10 6,6 C 6,6 C 6,6 C 90 % 1014,7 hPa 0,0 l/m 0,0 km/h (0 Bft) N 0 0 min 0,000 mm 0 W/m 5,1 C 6,6 C 0,0 km/h (0 Bft) 100 %
07.11.2017 23:20 6,6 C 6,6 C 6,6 C 90 % 1014,6 hPa 0,0 l/m 0,0 km/h (0 Bft) N 0 0 min 0,000 mm 0 W/m 5,1 C 6,6 C 0,0 km/h (0 Bft) 99 %
07.11.2017 23:30 6,6 C 6,6 C 6,6 C 90 % 1014,6 hPa 0,0 l/m 0,0 km/h (0 Bft) N-NO 22 0 min 0,000 mm 0 W/m 5,1 C 6,6 C 1,6 km/h (1 Bft) 100 %
07.11.2017 23:40 6,6 C 6,5 C 6,6 C 90 % 1014,6 hPa 0,0 l/m 0,0 km/h (0 Bft) N 0 0 min 0,000 mm 0 W/m 5,1 C 6,6 C 0,0 km/h (0 Bft) 100 %
07.11.2017 23:50 6,5 C 6,5 C 6,6 C 90 % 1014,4 hPa 0,0 l/m 0,0 km/h (0 Bft) N 0 0 min 0,000 mm 0 W/m 5,0 C 6,5 C 0,0 km/h (0 Bft) 100 %
_ Min-Zeit 01:40 01:40 01:50 13:00 23:50 - 00:00 - - - - - 01:50 01:40 00:10 04:40
Minimum _ 1,7 C 1,7 C 1,7 C 86 % 1014,4 hPa - 0,0 km/h (0 Bft) - - - - - 0,2 C 1,7 C 0,0 km/h (0 Bft) 85 %
_ Max-Zeit 13:50 13:50 13:50 00:00 00:00 00:00 15:50 - - 11:20 12:00 12:20 13:40 13:50 03:30 01:50
Maximum _ 8,1 C 8,0 C 8,1 C 91 % 1023,3 hPa 0,0 l/m 2,0 km/h
N (1 Bft)
- - 10 min 0,051 mm 178 W/m 6,0 C 8,1 C 16,1 km/h
N-NO (3 Bft)
100 %
Durchschnitt _ 5,7 C 5,7 C 5,8 C 89 % 1018,6 hPa #0,0 l/m 0,2 km/h (0 Bft) N-NW - #40 min. #0,254 mm 69 W/m 4,1 C 5,7 C 2,6 km/h (1 Bft) 98 %
PRIVATE WETTERSTATION BILLIGHEIM-ALLFELD - www.neckar-odenwald-wetter.de - Holger Sonntag